Location: Bergnerzell
(49.1816°N, 10.2565°E)
Time: 02:15:43
(UTC+00:00)

Cosmos 2333 - Pass Details

Date: 23 May 2024
Orbit: 828 x 866 km, 70.9° (Epoch: 19 June)

Event Time Altitude Azimuth Distance (km) Brightness Sun altitude
Rises 01:42:30 0° 331° (NNW) 3,424 7.7 -12.9°
Reaches altitude 10° 01:44:57 10° 333° (NNW) 2,490 7.0 -12.7°
Maximum altitude 01:50:42 79° 60° (ENE) 879 4.4 -12.1°
Drops below altitude 10° 01:56:27 10° 148° (SSE) 2,496 6.5 -11.6°
Sets 01:58:55 0° 150° (SSE) 3,432 7.2 -11.3°
